Regional Weather Roundup
Issued by NWS Grand Forks, ND

Home | Current Version | Previous Version | Text Only | Print | Product List | Glossary Off
Versions: 1 2 3 4 5 6 7 8 9 10 11 12 13 14 15 16 17 18 19 20 21 22 23 24 25 26 27 28 29 30 31 32 33 34 35 36 37 38 39 40 41 42 43 44 45 46 47 48 49 50

000
ASUS43 KFGF 301831
RWRFGF
PRAIRIE TO PINES  WEATHER ROUNDUP
NATIONAL WEATHER SERVICE EASTERN NORTH DAKOTA/GRAND FORKS ND
100 PM CDT TUE SEP 30 2014

 **SATELLITE DATA USED TO AUGMENT SKY COVER AT AUTOMATED STATIONS**
 *****  WEATHER ACROSS EASTERN NORTH DAKOTA  *****

CITY           SKY/WX    TMP DP  RH WIND       PRES   REMARKS
GRAND FORKS    PTSUNNY   57  44  62 SE18G28   29.84F
6HR MIN TEMP:  42; 6HR MAX TEMP:  58;

GRAND FRKS AFB MOSUNNY   55  47  73 SE16G25   29.84F
GRAND FRKS NWS   N/A     55 N/A N/A SE15        N/A
DEVILS LAKE    CLOUDY    48  41  76 SE20G32   29.74F
6HR MIN TEMP:  46; 6HR MAX TEMP:  48;

FARGO          PTSUNNY   58  43  57 SE20G26   29.82F
WAHPETON ARPT  CLOUDY    54  43  66 SE15G23   29.83F
$$

 ***** WEATHER ACROSS CENTRAL AND WESTERN NORTH DAKOTA  *****

CITY           SKY/WX    TMP DP  RH WIND       PRES   REMARKS
BISMARCK       CLOUDY    53  51  93 E15       29.61F
6HR MIN TEMP:  52; 6HR MAX TEMP:  54; 6HR PCP:  0.02;

MINOT          LGT RAIN  49  46  90 E15G23    29.67F FOG
6HR MIN TEMP:  48; 6HR MAX TEMP:  50;

JAMESTOWN      CLOUDY    50  46  86 E18G26    29.72F
6HR MIN TEMP:  45; 6HR MAX TEMP:  50; 6HR PCP: TRACE;

MINOT AFB      CLOUDY    50  50 100 E18       29.66F
GARRISON         N/A     51  50  96 E13       29.64F
WILLISTON      RAIN      55  53  93 E6        29.60F FOG
6HR MIN TEMP:  52; 6HR MAX TEMP:  56; 6HR PCP:  0.35;

DICKINSON      FOG       52  51  97 E15       29.55F VSB 1
6HR MIN TEMP:  51; 6HR MAX TEMP:  52; 6HR PCP:  0.24;

HETTINGER      LGT RAIN  52  51  97 E16       29.52F VSB 1
6HR MIN TEMP:  52; 6HR MAX TEMP:  54; 6HR PCP:  0.10;

$$

 *****  OTHER AIRPORT OBSERVATIONS IN OUR AREA  *****

CITY           SKY/WX    TMP DP  RH WIND       PRES   REMARKS
WALHALLA       CLOUDY    52  50  93 SE16G22   29.83S
GRAFTON AIRPOR FAIR      55  46  71 SE17G24   29.84F
VALLEY CITY AR CLOUDY    54  50  87 SE23G32   29.75F
CANDO          CLOUDY    48  46  93 SE21      29.76F
CAVALIER APRT  MOCLDY    55  46  71 SE14G22   29.83F
GWINNER        MOCLDY    52  48  87 E17G26    29.76F
ROLLA          CLOUDY    46  46 100 SE16      29.76F
 ***** THE ABOVE OBSERVATIONS ARE NON NWS ARE NOT QUALITY
       CONTROLLED AND MAY MIS-REPORT RAIN FOR SNOW...
$$

  *****  WEATHER ACROSS NORTHERN MINNESOTA  *****

CITY           SKY/WX    TMP DP  RH WIND       PRES   REMARKS
FLAG ISLAND    PTSUNNY   48  43  81 SE8G17    29.95F
WARROAD        SUNNY     55  45  67 E13G21    29.94F
ROSEAU         SUNNY     55  45  67 E13       29.91F
HALLOCK        SUNNY     61  46  59 SE17      29.85F
THF RVR FALLS  MOSUNNY   57  43  58 SE16G24   29.87F
6HR MIN TEMP:  43; 6HR MAX TEMP:  55;

BAUDETTE       SUNNY     53  42  66 SE12G20   29.97F
6HR MIN TEMP:  43; 6HR MAX TEMP:  53;

WASKISH        SUNNY     55  45  67 E13G21    29.95F
CROOKSTON      MOSUNNY   59  45  58 SE16      29.85F
STEPHEN NDAWN    N/A     55  48  76 SE14        N/A
GREENBUSH NDAW   N/A     55  45  67 SE15        N/A
$$
  *****  WEATHER ACROSS CENTRAL AND WEST MINNESOTA  *****

CITY           SKY/WX    TMP DP  RH WIND       PRES   REMARKS
FOSSTON        SUNNY     57  45  62 SE10G17   29.89F
BEMIDJI        MOSUNNY   51  41  69 E17       29.93F
PARK RAPIDS    MOSUNNY   50  41  71 E17G25    29.93F
6HR MIN TEMP:  40; 6HR MAX TEMP:  50;

ELBOW LAKE     FAIR      53  44  70 SE15G28   29.85F
6HR MIN TEMP:  42; 6HR MAX TEMP:  52;

WADENA         MOSUNNY   54  43  66 SE17      29.91F
DETROIT LAKES  MOSUNNY   54  41  62 SE17G26   29.88F
MOORHEAD       NOT AVBL
FERGUS FALLS   CLOUDY    54  41  62 SE14      29.85F
MORRIS MN      CLOUDY    54  45  71 SE20G26   29.85S
STAPLES        MOSUNNY   52  43  71 SE6G17    29.94F
$$
  *****  WEATHER ELSEWHERE ACROSS MINNESOTA  *****

CITY           SKY/WX    TMP DP  RH WIND       PRES   REMARKS
DULUTH         CLOUDY    46  39  76 E17       30.07F
6HR MIN TEMP:  42; 6HR MAX TEMP:  47;

INTRNTL FALLS  PTSUNNY   50  42  74 SE10      30.03F
6HR MIN TEMP:  41; 6HR MAX TEMP:  51;

ELY            SUNNY     52  39  62 SE13      30.06F
CLOQUET        CLOUDY    46  39  76 E12G18    30.04F
WHEATON        CLOUDY    52  45  76 E22G28    29.82F
BRAINERD       PTSUNNY   48  42  80 SE8       30.00F
6HR MIN TEMP:  42; 6HR MAX TEMP:  48;

HIBBING        MOSUNNY   53  41  63 SE15      30.03F
6HR MIN TEMP:  42; 6HR MAX TEMP:  51;

ALEXANDRIA     CLOUDY    51  43  74 E18G25    29.91F
6HR MIN TEMP:  39; 6HR MAX TEMP:  51;

SAINT CLOUD    PTSUNNY   53  41  63 E13       29.98F
6HR MIN TEMP:  43; 6HR MAX TEMP:  55;

MINNEAPOLIS    PTSUNNY   53  41  63 E13       30.01F
6HR MIN TEMP:  42; 6HR MAX TEMP:  53;

$$

  *****  WEATHER ACROSS SOUTH DAKOTA  *****

CITY           SKY/WX    TMP DP  RH WIND       PRES   REMARKS
SIOUX FALLS    LGT RAIN  61  58  90 SE18G24   29.78F FOG
6HR MIN TEMP:  52; 6HR MAX TEMP:  60; 6HR PCP:  0.15;

BROOKINGS      NOT AVBL
WATERTOWN      CLOUDY    52  49  89 SE15G25   29.75F
6HR MIN TEMP:  47; 6HR MAX TEMP:  52; 6HR PCP:  0.01;

HURON          CLOUDY    64  59  82 SE20G31   29.64F
6HR MIN TEMP:  54; 6HR MAX TEMP:  64; 6HR PCP:  0.36;

SISSETON         N/A     48  45  89 SE16G26   29.79F
ABERDEEN       CLOUDY    58  54  86 SE17G28   29.66F
6HR MIN TEMP:  52; 6HR MAX TEMP:  58; 6HR PCP:  0.12;

MITCHELL       MOSUNNY   71  62  73 SE22G31   29.67F
PIERRE         CLOUDY    70  49  47 S37G45    29.44F
6HR MIN TEMP:  57; 6HR MAX TEMP:  70;

MOBRIDGE       MOSUNNY   66  58  75 E28G39    29.46F
RAPID CITY     HVY RAIN  54  52  93 NW16      29.48R FOG
6HR MIN TEMP:  53; 6HR MAX TEMP:  57; 6HR PCP:  0.24;

$$

  *****  SOME WEATHER IN NEARBY STATES *****

CITY           SKY/WX    TMP DP  RH WIND       PRES   REMARKS
GLASGOW MT     PTSUNNY   59  50  72 CALM      29.60F
6HR MIN TEMP:  51; 6HR MAX TEMP:  59;

GREAT FALLS MT CLOUDY    63  44  50 SW21      29.70S
6HR MIN TEMP:  52; 6HR MAX TEMP:  63;

CHEYENNE WY    MOSUNNY   58  34  40 W23G31    29.87S
6HR MIN TEMP:  49; 6HR MAX TEMP:  59;

SCOTTSBLUFF NE PTSUNNY   69  44  40 W24G35    29.73F
6HR MIN TEMP:  52; 6HR MAX TEMP:  69; 6HR PCP:  0.01;

OMAHA NE       CLOUDY    75  60  59 S7        29.83F
6HR MIN TEMP:  64; 6HR MAX TEMP:  76;

DES MOINES IA  CLOUDY    65  57  75 SE12      29.92F
6HR MIN TEMP:  59; 6HR MAX TEMP:  63;

DAVENPORT IA   NOT AVBL
CHICAGO IL     PTSUNNY   55  46  71 N10       30.04F
6HR MIN TEMP:  47; 6HR MAX TEMP:  57; 6HR PCP: TRACE;

EAU CLAIRE WI  SUNNY     50  39  66 E7        30.05F
6HR MIN TEMP:  40; 6HR MAX TEMP:  51;

LA CROSSE WI   CLOUDY    53  42  66 E6        30.07F
6HR MIN TEMP:  46; 6HR MAX TEMP:  53;

$$

  *****  SOME NATIONAL WEATHER *****

CITY           SKY/WX    TMP DP  RH WIND       PRES   REMARKS
LA GUARDIA NY  CLOUDY    66  59  77 E10       29.95F
6HR MIN TEMP:  66; 6HR MAX TEMP:  69; 6HR PCP: TRACE;

RALEIGH NC     CLOUDY    68  61  78 N3        29.91F
6HR MIN TEMP:  63; 6HR MAX TEMP:  68;

ATLANTA GA     MOSUNNY   79  61  53 CALM      29.94F
6HR MIN TEMP:  66; 6HR MAX TEMP:  79;

NEW ORLEANS LA MOSUNNY   86  72  62 NE12      29.89F HX  92
6HR MIN TEMP:  75; 6HR MAX TEMP:  86;

OKLAHOMA CITY  MOSUNNY   87  59  38 S13G23    29.86F
6HR MIN TEMP:  62; 6HR MAX TEMP:  87;

ALBUQUERQUE NM SUNNY     65  31  28 VRB3      30.03F
6HR MIN TEMP:  46; 6HR MAX TEMP:  65;

SALT LAKE CITY PTSUNNY   61  43  51 CALM      29.97
                                      6HR PCP: TRACE;

LOS ANGELES CA MOSUNNY   77  56  48 CALM      29.87S
6HR MIN TEMP:  62; 6HR MAX TEMP:  77;




USA.gov is the U.S. government's official web portal to all federal, state and local government web resources and services.